Weather Service Report


140 
ASUS43 KFSD 190710
RWRSD 

WEATHER ROUNDUP FOR SOUTH DAKOTA
NATIONAL WEATHER SERVICE SIOUX FALLS SD
100 AM CST FRI DEC 19 2014

NOTE: "FAIR" INDICATES FEW OR NO CLOUDS BELOW 12,000 FEET WITH NO
SIGNIFICANT WEATHER AND/OR OBSTRUCTIONS TO VISIBILITY.


SDZ001>005-009-010-012>017-190800-
NORTHWEST AND NORTH CENTRAL SOUTH DAKOTA
  
CITY           SKY/WX    TMP DP  RH WIND       PRES   REMARKS
BUFFALO          N/A     28  21  75 W8        29.89S WCI  20          
FAITH            N/A     22  19  89 S9        29.98F WCI  12          
MOBRIDGE       CLEAR     22  20  92 S9        30.00S WCI  12          
$$
 
SDZ012>016-024>037-041>051-057-063-072>074-190800-
SOUTHWEST AND SOUTH CENTRAL SOUTH DAKOTA
  
CITY           SKY/WX    TMP DP  RH WIND       PRES   REMARKS
RAPID CTY ARPT CLEAR     27  18  69 W5        30.00F WCI  22          
PIERRE         FOG       14  12  92 S3        30.04F VSB 1/2          
CUSTER         CLEAR     23  15  71 NW3       29.99F                  
ELLSWORTH AFB  CLEAR     28  18  66 SW6       29.99F WCI  22          
PHILIP         CLEAR     14  11  87 CALM      30.03F                  
PINE RIDGE     PTCLDY    24  16  71 W3        30.04F                  
SPEARFISH      FAIR      30  18  59 W3        29.99F                  
WINNER         FAIR      25  19  78 SW7       30.06F WCI  17          
$$
 
SDZ004>011-016>023-039-040-190800-
NORTHEAST SOUTH DAKOTA
  
CITY           SKY/WX    TMP DP  RH WIND       PRES   REMARKS
ABERDEEN       CLOUDY    27  24  89 S10       30.11F WCI  17          
WATERTOWN      CLOUDY    25  24  96 S7        30.12S FOG     WCI  17  
SISSETON         N/A     23  22  96 S9        30.14F WCI  13          
$$
 
SDZ017-020-022-023-036>040-048>070-190800-
SOUTHEAST SOUTH DAKOTA
  
CITY           SKY/WX    TMP DP  RH WIND       PRES   REMARKS
SIOUX FALLS    CLOUDY    28  25  88 S8        30.17F WCI  20          
HURON          CLOUDY    27  24  89 S8        30.13F WCI  19          
CHAMBERLAIN    CLEAR     21  20  97 SE6       30.09F FOG     WCI  13  
MITCHELL       CLOUDY    29  26  89 S9        30.15F WCI  20          
YANKTON        CLOUDY    28  25  86 S8        30.19F WCI  20          
$$
 
ABBREVIATIONS USED IN REMARKS
   TC - TEMPERATURE IN CELSIUS
  WCI - WIND CHILL INDEX
   HX - HEAT INDEX
  VSB - VISIBILITY



142 
ASUS43 KFSD 190710
RWRFSD

WEATHER ROUNDUP FOR SE SOUTH DAKOTA/SW MINNESOTA/NW IOWA
NATIONAL WEATHER SERVICE SIOUX FALLS SD
100 AM CST FRI DEC 19 2014

NOTE: "FAIR" INDICATES FEW OR NO CLOUDS BELOW 12,000 FEET WITH NO
SIGNIFICANT WEATHER AND OR OBSTRUCTIONS TO VISIBILITY.


SDZ038>040-050-052>070-190800-
SOUTHEAST SOUTH DAKOTA
  
CITY           SKY/WX    TMP DP  RH WIND       PRES   REMARKS
CHAMBERLAIN    CLEAR     21  20  97 SE6       30.09F FOG     WCI  13  
HURON          CLOUDY    27  24  89 S8        30.13F WCI  19          
MADISON        CLOUDY    25  25 100 S10       30.14F WCI  15          
MITCHELL       CLOUDY    29  26  89 S9        30.15F WCI  20          
SIOUX FALLS    CLOUDY    28  25  88 S8        30.17F WCI  20          
WINNER         FAIR      25  19  78 SW7       30.06F WCI  17          
YANKTON        CLOUDY    28  25  86 S8        30.19F WCI  20          
$$

MNZ071-072-080-081-089-090-097-098-190800-
SOUTHWEST MINNESOTA
  
CITY           SKY/WX    TMP DP  RH WIND       PRES   REMARKS
FAIRMONT       CLOUDY    25  19  80 S8        30.22F WCI  16          
JACKSON        CLOUDY    27  23  86 S5        30.20F WCI  21          
LUVERNE        CLOUDY    30  27  86 S7        30.19S FOG     WCI  23  
MARSHALL       CLOUDY    27  21  80 SE3       30.19S                  
MONTEVIDEO     CLOUDY    23  21  93 S5        30.22S WCI  17          
PIPESTONE      CLOUDY    27  25  93 S3        30.16S FOG              
REDWOOD FALLS  CLOUDY    24  20  84 SE9       30.22F WCI  14          
TRACY          CLOUDY    27  25  92 S5        30.19F WCI  22          
WINDOM         CLOUDY    25  23  93 CALM      30.20S                  
WORTHINGTON    CLOUDY    27  25  93 S6        30.19F WCI  20          
$$

IAZ001>003-012>014-020>022-031-032-NEZ013-014-SDZ071-190800-
NORTHWEST IOWA
  
CITY           SKY/WX    TMP DP  RH WIND       PRES   REMARKS
CHEROKEE       CLOUDY    29  28  96 S6        30.22S WCI  23          
DENISON        CLOUDY    30  28  93 S7        30.22S WCI  23          
ESTHERVILLE    CLOUDY    25  22  88 S9        30.21F WCI  15          
LE MARS        CLOUDY    30  28  93 S7        30.21F WCI  23          
ORANGE CITY    CLOUDY    28  27  93 S6        30.19F FOG     WCI  22  
SHELDON        CLOUDY    28  28 100 S7        30.19S WCI  21          
SIOUX CITY     CLOUDY    31  26  82 S6        30.22F WCI  25          
SPENCER        CLOUDY    28  24  85 S8        30.21F WCI  20          
STORM LAKE     CLOUDY    28  27  93 S6        30.22S WCI  22          
$$
 
ABBREVIATIONS USED IN REMARKS
   TC - TEMPERATURE IN CELSIUS
  WCI - WIND CHILL INDEX
   HX - HEAT INDEX
  VSB - VISIBILITY


Return to Home page


Western Regional Climate Center, wrcc@dri.edu